| time (UTC) | temp C | wind direction | speed KPH | gust KPH | rain 1hr cm | rain 24hr cm | rain mn cm | humidity % | barometer mb |
| 20260503014542 | 3 | 0 | 0.0 | 1.6 | 0.00 | 0.00 | 0.00 | 68 | 1015.9 |
| 20260503013047 | 3 | 0 | 0.0 | 1.6 | 0.00 | 0.00 | 0.00 | 66 | 1015.7 |
| 20260503011539 | 4 | 0 | 0.0 | 0.0 | 0.00 | 0.00 | 0.00 | 63 | 1015.7 |
| 20260503010047 | 5 | 0 | 0.0 | 0.0 | 0.00 | 0.00 | 0.00 | 62 | 1015.6 |
| 20260503004533 | 6 | 0 | 0.0 | 1.6 | 0.00 | 0.00 | 0.00 | 58 | 1015.5 |
| 20260503003038 | 6 | 262 | 0.0 | 1.6 | 0.00 | 0.00 | 0.00 | 56 | 1015.6 |
| 20260503001538 | 7 | 0 | 0.0 | 1.6 | 0.00 | 0.00 | 0.00 | 54 | 1015.4 |
| 20260503000037 | 7 | 259 | 1.6 | 8.0 | 0.00 | 0.00 | 0.00 | 51 | 1015.4 |
| 20260502234539 | 8 | 300 | 1.6 | 9.7 | 0.00 | 0.00 | 0.00 | 51 | 1015.6 |
| 20260502233043 | 7 | 238 | 4.8 | 11.3 | 0.00 | 0.00 | 0.00 | 50 | 1015.7 |
| 20260502231533 | 7 | 218 | 3.2 | 11.3 | 0.00 | 0.00 | 0.00 | 50 | 1015.7 |
| 20260502230040 | 7 | 311 | 4.8 | 16.1 | 0.00 | 0.00 | 0.00 | 49 | 1015.8 |
| 20260502224541 | 8 | 254 | 4.8 | 11.3 | 0.00 | 0.00 | 0.00 | 48 | 1015.9 |
| 20260502223038 | 8 | 252 | 3.2 | 9.7 | 0.00 | 0.00 | 0.00 | 49 | 1015.9 |
| 20260502221536 | 8 | 356 | 4.8 | 14.5 | 0.00 | 0.00 | 0.00 | 48 | 1015.6 |
| 20260502220035 | 7 | 335 | 8.0 | 19.3 | 0.00 | 0.00 | 0.00 | 48 | 1015.8 |
| 20260502214537 | 7 | 287 | 8.0 | 17.7 | 0.00 | 0.00 | 0.00 | 47 | 1015.9 |
| 20260502213032 | 8 | 258 | 8.0 | 14.5 | 0.00 | 0.00 | 0.00 | 47 | 1015.8 |
| 20260502211537 | 8 | 297 | 4.8 | 17.7 | 0.00 | 0.00 | 0.00 | 48 | 1015.9 |
| 20260502210047 | 7 | 318 | 8.0 | 17.7 | 0.00 | 0.00 | 0.00 | 47 | 1016.0 |
| 20260502204536 | 7 | 308 | 6.4 | 17.7 | 0.00 | 0.00 | 0.00 | 48 | 1016.0 |
| 20260502203036 | 7 | 314 | 8.0 | 14.5 | 0.00 | 0.00 | 0.00 | 46 | 1016.1 |
| 20260502201532 | 7 | 315 | 6.4 | 19.3 | 0.00 | 0.00 | 0.00 | 48 | 1016.3 |
| 20260502200042 | 7 | 232 | 9.7 | 16.1 | 0.00 | 0.00 | 0.00 | 48 | 1016.5 |
| 20260502194540 | 7 | 253 | 4.8 | 22.5 | 0.00 | 0.00 | 0.00 | 48 | 1016.6 |
| 20260502193035 | 7 | 303 | 6.4 | 19.3 | 0.00 | 0.00 | 0.00 | 48 | 1016.7 |
| 20260502191536 | 7 | 15 | 9.7 | 17.7 | 0.00 | 0.00 | 0.00 | 47 | 1016.8 |
| 20260502190036 | 7 | 251 | 11.3 | 19.3 | 0.00 | 0.00 | 0.00 | 47 | 1016.8 |
| 20260502184535 | 7 | 17 | 4.8 | 16.1 | 0.00 | 0.00 | 0.00 | 48 | 1017.1 |
| 20260502183038 | 7 | 357 | 4.8 | 16.1 | 0.00 | 0.00 | 0.00 | 48 | 1017.0 |
| 20260502181539 | 7 | 6 | 8.0 | 20.9 | 0.00 | 0.00 | 0.00 | 48 | 1017.2 |
| 20260502163038 | 6 | 346 | 8.0 | 16.1 | 0.00 | 0.00 | 0.00 | 48 | 1017.9 |
| 20260502161536 | 6 | 309 | 8.0 | 14.5 | 0.00 | 0.00 | 0.00 | 49 | 1017.9 |
| 20260502151541 | 5 | 11 | 11.3 | 20.9 | 0.00 | 0.00 | 0.00 | 52 | 1017.9 |
| 20260502123041 | 3 | 26 | 4.8 | 9.7 | 0.00 | 0.00 | 0.00 | 68 | 1018.0 |
| 20260502121537 | 2 | 352 | 1.6 | 11.3 | 0.00 | 0.00 | 0.00 | 71 | 1017.9 |
| 20260502114549 | 2 | 312 | 1.6 | 8.0 | 0.00 | 0.00 | 0.00 | 74 | 1017.5 |
| 20260502113034 | 1 | 356 | 3.2 | 6.4 | 0.00 | 0.00 | 0.00 | 76 | 1017.4 |
| 20260502111542 | 1 | 246 | 0.0 | 6.4 | 0.00 | 0.00 | 0.00 | 77 | 1017.3 |
| 20260502110037 | 1 | 305 | 0.0 | 4.8 | 0.00 | 0.00 | 0.00 | 78 | 1017.2 |
| 20260502104537 | 1 | 0 | 0.0 | 0.0 | 0.00 | 0.00 | 0.00 | 78 | 1017.2 |
| 20260502103034 | 1 | 0 | 0.0 | 3.2 | 0.00 | 0.00 | 0.00 | 78 | 1017.2 |
| 20260502101536 | 1 | 0 | 1.6 | 6.4 | 0.00 | 0.00 | 0.00 | 77 | 1017.0 |
| 20260502071532 | 2 | 0 | 0.0 | 0.0 | 0.00 | 0.00 | 0.00 | 84 | 1016.1 |
| 20260502070034 | 2 | 0 | 0.0 | 0.0 | 0.00 | 0.00 | 0.00 | 83 | 1016.4 |
| 20260502064556 | 2 | 0 | 0.0 | 0.0 | 0.00 | 0.00 | 0.00 | 82 | 1016.3 |
| 20260502063040 | 3 | 0 | 0.0 | 0.0 | 0.00 | 0.00 | 0.00 | 81 | 1016.4 |
| 20260502061535 | 3 | 0 | 0.0 | 1.6 | 0.00 | 0.00 | 0.00 | 80 | 1016.6 |
| 20260502060043 | 3 | 0 | 0.0 | 1.6 | 0.00 | 0.00 | 0.00 | 78 | 1016.8 |
| 20260502054534 | 3 | 93 | 0.0 | 1.6 | 0.00 | 0.00 | 0.00 | 78 | 1016.9 |
| 20260502053041 | 3 | 0 | 0.0 | 1.6 | 0.00 | 0.00 | 0.00 | 78 | 1016.9 |
| 20260502051535 | 3 | 0 | 0.0 | 4.8 | 0.00 | 0.00 | 0.00 | 78 | 1016.9 |
| 20260502050038 | 3 | 108 | 0.0 | 3.2 | 0.00 | 0.00 | 0.00 | 77 | 1016.8 |
| 20260502044534 | 3 | 101 | 1.6 | 9.7 | 0.00 | 0.00 | 0.00 | 76 | 1016.7 |
| 20260502043039 | 4 | 315 | 1.6 | 8.0 | 0.00 | 0.00 | 0.00 | 71 | 1016.4 |
| 20260502041540 | 4 | 35 | 0.0 | 4.8 | 0.00 | 0.00 | 0.00 | 72 | 1016.4 |
| 20260502040032 | 4 | 58 | 4.8 | 22.5 | 0.00 | 0.00 | 0.00 | 71 | 1016.2 |
| 20260502034533 | 5 | 342 | 4.8 | 9.7 | 0.00 | 0.00 | 0.00 | 70 | 1016.1 |
| 20260502033034 | 5 | 1 | 3.2 | 6.4 | 0.00 | 0.00 | 0.00 | 71 | 1015.9 |
| 20260502031537 | 5 | 309 | 1.6 | 4.8 | 0.00 | 0.00 | 0.00 | 70 | 1015.8 |
| 20260502030044 | 5 | 2 | 0.0 | 4.8 | 0.00 | 0.00 | 0.00 | 70 | 1015.9 |
| 20260502024535 | 5 | 353 | 1.6 | 9.7 | 0.00 | 0.00 | 0.00 | 69 | 1016.0 |
| 20260502023037 | 5 | 304 | 3.2 | 6.4 | 0.00 | 0.00 | 0.00 | 69 | 1016.0 |
| 20260502021535 | 5 | 321 | 6.4 | 12.9 | 0.00 | 0.00 | 0.00 | 69 | 1015.9 |
| 20260502020036 | 5 | 332 | 1.6 | 8.0 | 0.00 | 0.00 | 0.00 | 69 | 1015.7 |